Voltar ao catálogo

FENGYUN 1C DEB

LostSSO
NORAD 31240·DEBRIS·🇨🇳 China

Lançado May 10, 1999 de Taiyuan Satellite Launch Center

Loading…

Próximas Passagens (próximas 24 horas)

TLE

ObsoletoSource: Space-Track

Época: Aug 8, 2026, 06:32 UTC

1 31240U 99025BLW 26220.27261519  .00000430  00000-0  26577-3 0  9997
2 31240  98.7548 223.1673 0046673  62.5031 311.0189 14.09889952254582

Acompanhe FENGYUN 1C DEB em tempo real com AllMySat

Download on the App Store